Tiempo atmosférico en la estación meteorológica de Alcazar De San Juan, Ciudad Real (664 m.)



Fecha
DESCASC
Temp. máxima en grados centígrados (hora)
DESCASC
Temp. mínima en grados centígrados (hora)
DESCASC
Temp. media en grados centígrados
DESCASC
Racha de viento máxima en m/sg (hora)
DESCASC
Velocidad máxima media en intervalos de 10 minutos(hora)
DESCASC
Precipitaciones diarias en mm
DESCASC
Precipitaciones de 00:00 a 06:00 en mm
DESCASC
Precipitaciones de 06:00 a 12:00 en mm
DESCASC
Precipitaciones de 12:00 a 18:00 en mm
DESCASC
Precipitaciones de 18:00 a 24:00 en mm
DESCASC
10-01-2021 0.9 (16:20) -3.7 (08:20) -1.4 4.17 (16:30) 2.22 (14:00) -- -- -- -- --
08-01-2021 1.6 (02:00) 0.5 (00:00) 1.1 10.83 (23:59) 2.78 (21:30) 15.4 0.8 3 4.6 7
11-01-2021 1.9 (15:40) -5.8 (-00:0) -2 6.11 (14:00) 2.5 (13:50) -- -- -- -- --
07-01-2021 2.7 (00:00) 0.5 (00:00) 1.6 7.78 (01:00) 2.5 (00:20) 10.4 1.2 3.2 4.6 1.4
09-01-2021 3 (11:40) -0.3 (00:00) 1.3 11.11 (02:50) 3.61 (02:30) 19.6 8.8 9.2 1.2 0.4
12-01-2021 3.4 (16:30) -6.8 (-00:0) -1.7 2.78 (16:30) 1.39 (16:20) -- -- -- -- 0
05-01-2021 3.6 (16:20) -4.1 (-00:0) -0.3 2.78 (17:40) 1.11 (06:00) 0 0 0 0 0
13-01-2021 4.6 (16:00) -6.4 (-00:0) -0.9 3.06 (14:50) 1.39 (15:00) 0 0 0 0 0
06-01-2021 5.2 (15:20) -5.9 (-00:0) -0.4 6.39 (23:00) 2.22 (21:30) 0 0 0 0 0
02-01-2021 5.4 (16:40) -1.9 (-00:0) 1.8 11.11 (14:10) 3.89 (14:10) 0 0 0 0 0
04-01-2021 5.5 (16:00) -1.6 (-00:0) 1.9 6.39 (15:20) 3.06 (14:50) 0 0 0 0 0
14-01-2021 6.4 (15:50) -4.3 (08:00) 1 4.17 (16:50) 2.22 (17:00) 0 0 0 0 0
15-01-2021 6.7 (14:10) -3.6 (-00:0) 1.5 4.72 (16:30) 2.22 (15:10) 0 0 0 0 0
03-01-2021 6.8 (14:30) -3.8 (-00:0) 1.5 6.39 (15:50) 3.06 (15:50) 0 0 0 0 0
30-12-2020 7.2 (15:40) -2.2 (-00:0) 2.5 4.72 (14:40) 1.67 (13:50) 0 0 0 0 0
26-12-2020 7.2 (16:30) -1.8 (-00:0) 2.7 7.5 (14:40) 3.61 (13:50) 0.4 0 0.4 0 0
01-01-2021 7.3 (14:50) 0.8 (00:00) 4.1 9.44 (11:30) 3.33 (00:20) 6.4 3.6 2 0.8 0
25-12-2020 7.8 (14:50) 0.3 (00:00) 4.1 10 (13:50) 4.44 (12:50) 0 0 0 0 0
31-12-2020 8.1 (16:40) -3 (-00:0) 2.6 8.61 (16:50) 3.61 (16:50) 0.4 0 0 0 0.4
29-12-2020 8.4 (14:40) 0 (00:00) 4.2 9.17 (18:00) 3.89 (18:00) 0 0 0 0 0
16-01-2021 8.4 (15:40) -4 (-00:0) 2.2 4.17 (15:20) 1.94 (07:10) 0 0 0 0 0
17-01-2021 8.5 (15:50) -3.9 (-00:0) 2.3 2.5 (22:00) 1.11 (13:50) 0 0 0 0 0
20-01-2021 8.6 (16:10) 1.3 (00:00) 5 10.56 (15:10) 4.17 (15:10) 2.4 0 0.4 0 2
27-12-2020 9.2 (15:30) -3.2 (-00:0) 3 10.56 (16:50) 3.61 (14:50) 0 0 0 0 0
18-01-2021 9.5 (15:10) -3.3 (-00:0) 3.1 3.06 (16:40) 1.67 (16:40) 0 0 0 0 0
28-12-2020 10.3 (15:10) 1.7 (00:00) 6 13.06 (02:40) 5.83 (05:20) 0.8 0 0.8 0 0
19-01-2021 11.1 (16:10) -3.6 (-00:0) 3.8 3.89 (15:30) 1.94 (15:20) 0 0 0 0 0
23-12-2020 11.2 (17:00) 4.6 (00:00) 7.9 3.61 (06:40) 1.67 (06:30) 0 0 0 0 0
21-01-2021 11.4 (14:50) 7.1 (00:00) 9.2 12.22 (16:40) 3.89 (13:30) 0 0 0 0 0
24-12-2020 12.6 (13:20) 7.6 (00:00) 10.1 5 (16:20) 2.22 (22:30) 0 0 0 0 0

Gráficas

Temp. máximas Temp. mínimas Temp. medias Precipitaciones Rachas de viento máximas Velocidades máximas media en intervalos de 10 minutos

Datos horarios

Fecha y hora oficial Temperatura (ºC) Velocidad del viento (km/h) Dirección del viento Racha (km/h) Dirección de racha Precipitación (mm) Presión (hPa) Tendencia (hPa) Humedad (%)
2021-01-21 23:00:00 9.9 8 Sudoeste 23 Sur 0 -- -- 97
2021-01-21 22:00:00 9.7 6 Sudoeste 28 Oeste 0 -- -- 96
2021-01-21 21:00:00 9.7 11 Sudoeste 30 Sudoeste 0 -- -- 95
2021-01-21 20:00:00 9.8 9 Sudoeste 25 Sur 0 -- -- 95
2021-01-21 19:00:00 9.7 6 Sudoeste 26 Sudoeste 0 -- -- 96
2021-01-21 18:00:00 10 10 Sudoeste 25 Sudoeste 0 -- -- 93
2021-01-21 17:00:00 10.5 10 Sudoeste 44 Oeste 0 -- -- 89
2021-01-21 16:00:00 11.1 12 Sudoeste 35 Sudoeste 0 -- -- 86
2021-01-21 15:00:00 11.1 14 Sudoeste 40 Oeste 0 -- -- 83
2021-01-21 14:00:00 10.6 14 Sudoeste 40 Oeste 0 -- -- 88
2021-01-21 13:00:00 10.5 12 Sudoeste 29 Sudoeste 0 -- -- 91
2021-01-21 12:00:00 10.5 9 Oeste 31 Sudoeste 0 -- -- 88
2021-01-21 11:00:00 9.4 11 Sudoeste 28 Sudoeste 0 -- -- 99
2021-01-21 10:00:00 8 6 Sudoeste 17 Sudoeste 0 -- -- 99
2021-01-21 09:00:00 7.3 6 Sudoeste 21 Sudoeste 0 -- -- 99
2021-01-21 08:00:00 7.2 6 Sudoeste 21 Sudoeste 0 -- -- 99
2021-01-21 07:00:00 7.3 7 Sudoeste 23 Sudoeste 0 -- -- 98
2021-01-21 06:00:00 7.5 8 Sudoeste 26 Oeste 0 -- -- 98
2021-01-21 05:00:00 7.6 7 Sudoeste 23 Sudoeste 0 -- -- 98
2021-01-21 04:00:00 7.4 7 Sudoeste 23 Oeste 0 -- -- 98
2021-01-21 03:00:00 7.4 9 Sudoeste 22 Sudoeste 0 -- -- 98
2021-01-21 02:00:00 7.2 8 Sudoeste 18 Sudoeste 0 -- -- 98
2021-01-21 01:00:00 7.5 6 Sudoeste 18 Sudoeste 0 -- -- 98
2021-01-21 00:00:00 7.2 5 Sudoeste 14 Oeste 0 -- -- 98
2021-01-20 23:00:00 7.4 4 Sudoeste 12 Sudoeste 0.4 -- -- 97
2021-01-20 22:00:00 7.5 3 Sudoeste 13 Sudoeste 1.6 -- -- 97
2021-01-20 21:00:00 7.7 4 Oeste 24 Sudoeste 0 -- -- 96
2021-01-20 20:00:00 7.4 3 Sur 18 Sur 0 -- -- 95
2021-01-20 19:00:00 8.2 7 Sudoeste 21 Sudoeste 0 -- -- 94
2021-01-20 18:00:00 8.6 7 Sudoeste 21 Sudoeste 0 -- -- 94
2021-01-20 17:00:00 8.6 6 Sur 24 Sur 0 -- -- 94
2021-01-20 16:00:00 8.5 11 Sudoeste 38 Sur 0 -- -- 95
2021-01-20 15:00:00 8 13 Sudoeste 30 Sur 0 -- -- 96
2021-01-20 14:00:00 7.1 8 Sudoeste 22 Sur 0 -- -- 93
2021-01-20 13:00:00 6.3 12 Sur 24 Sur 0 -- -- 92
2021-01-20 12:00:00 6 8 Sur 16 Sur 0.2 -- -- 95
2021-01-20 11:00:00 5 3 Sur 7 Sur 0.2 -- -- 94
2021-01-20 10:00:00 4.2 3 Sur 10 Sur 0 -- -- 91
2021-01-20 09:00:00 3.5 5 Sudeste 13 Sur 0 -- -- 90
2021-01-20 08:00:00 2.9 2 Sudeste 10 Sudeste 0 -- -- 87
2021-01-20 07:00:00 3 2 Sudeste 13 Sudeste 0 -- -- 85
2021-01-20 06:00:00 2.3 3 Sudeste 10 Sudeste 0 -- -- 82
2021-01-20 05:00:00 1.9 2 Sur 8 Sudeste 0 -- -- 82
2021-01-20 04:00:00 1.5 3 Sur 8 Sur 0 -- -- 81
2021-01-20 03:00:00 1.4 2 Sudeste 5 Sudeste 0 -- -- 80
2021-01-20 02:00:00 1.6 0 Calma 7 Sur 0 -- -- 81
2021-01-20 01:00:00 2 2 Sur 6 Sur 0 -- -- 81
2021-01-20 00:00:00 2.7 3 Sur 8 Sudeste 0 -- -- 82
2021-01-19 23:00:00 3 2 Sudeste 5 Sudeste 0 -- -- 84
2021-01-19 22:00:00 3.9 0 Calma 8 Sudeste 0 -- -- 80
2021-01-19 21:00:00 4.5 3 Sudeste 10 Sudeste 0 -- -- 77
2021-01-19 20:00:00 5.2 4 Sudeste 14 Sudeste 0 -- -- 75
2021-01-19 19:00:00 7 4 Sudeste 10 Sudeste 0 -- -- 72
2021-01-19 18:00:00 9.6 0 Calma 4 Sudoeste 0 -- -- 70
2021-01-19 17:00:00 10.7 3 Oeste 13 Sur 0 -- -- 62
2021-01-19 16:00:00 11 4 Sudoeste 14 Sudoeste 0 -- -- 60
2021-01-19 15:00:00 10.1 5 Sudoeste 12 Sur 0 -- -- 67
2021-01-19 14:00:00 8.3 5 Sudoeste 12 Sudeste 0 -- -- 70
2021-01-19 13:00:00 6.6 5 Sur 10 Sur 0 -- -- 75
2021-01-19 12:00:00 5.8 4 Sur 9 Sudeste 0 -- -- 75
2021-01-19 11:00:00 3.4 2 Sur 7 Sudeste 0 -- -- 81
2021-01-19 10:00:00 -0.2 2 Sudeste 8 Sudeste 0 -- -- 95
2021-01-19 09:00:00 -3.5 0 Calma 3 Noroeste 0 -- -- 92
2021-01-19 08:00:00 -3.3 0 Calma 5 Noroeste 0 -- -- 91
2021-01-19 07:00:00 -2.5 0 Calma 2 Oeste 0 -- -- 93
2021-01-19 06:00:00 -2.5 0 Calma 4 Noroeste 0 -- -- 93
2021-01-19 05:00:00 -2.1 0 Calma 2 Noroeste 0 -- -- 93
2021-01-19 04:00:00 -1.8 0 Calma 2 Oeste 0 -- -- 93
2021-01-19 03:00:00 -1.1 0 Calma 2 Nordeste 0 -- -- 93
2021-01-19 02:00:00 -0.9 0 Calma 3 Noroeste 0 -- -- 92
2021-01-19 01:00:00 -0.6 2 Noroeste 5 Noroeste 0 -- -- 91
2021-01-19 00:00:00 0 0 Calma 2 Nordeste 0 -- -- 90
2021-01-18 23:00:00 0.6 0 Calma 3 Noroeste 0 -- -- 89
2021-01-18 22:00:00 1.1 0 Calma 4 Noroeste 0 -- -- 87
2021-01-18 21:00:00 2.5 0 Calma 5 Noroeste 0 -- -- 84
2021-01-18 20:00:00 4.1 0 Calma 4 Norte 0 -- -- 81
2021-01-18 19:00:00 5.8 0 Calma 6 Nordeste 0 -- -- 75
2021-01-18 18:00:00 7.9 3 Norte 8 Nordeste 0 -- -- 72
2021-01-18 17:00:00 9 3 Nordeste 11 Nordeste 0 -- -- 67
2021-01-18 16:00:00 9.3 2 Norte 9 Norte 0 -- -- 66
2021-01-18 15:00:00 9.3 3 Noroeste 10 Oeste 0 -- -- 62
2021-01-18 14:00:00 8.3 0 Calma 6 Sudoeste 0 -- -- 63
2021-01-18 13:00:00 6.3 2 Norte 5 Noroeste 0 -- -- 63
2021-01-18 12:00:00 5.3 2 Noroeste 4 Noroeste 0 -- -- 63
2021-01-18 11:00:00 4.2 0 Calma 2 Sur 0 -- -- 67
2021-01-18 10:00:00 -0.8 0 Calma 4 Nordeste 0 -- -- 81
2021-01-18 09:00:00 -3.3 0 Calma 2 Sudoeste 0 -- -- 85
2021-01-18 08:00:00 -3 0 Calma 3 Nordeste 0 -- -- 82
2021-01-18 07:00:00 -2.6 0 Calma 6 Nordeste 0 -- -- 80
2021-01-18 06:00:00 -2.4 2 Norte 5 Nordeste 0 -- -- 80
2021-01-18 05:00:00 -1.5 3 Norte 8 Norte 0 -- -- 73
2021-01-18 04:00:00 -1.7 3 Norte 9 Norte 0 -- -- 75
2021-01-18 03:00:00 -1.7 0 Calma 5 Norte 0 -- -- 80
2021-01-18 02:00:00 -1.7 2 Noroeste 4 Noroeste 0 -- -- 84
2021-01-18 01:00:00 -1.3 0 Calma 5 Noroeste 0 -- -- 81
2021-01-18 00:00:00 -0.4 0 Calma 3 Norte 0 -- -- 77
2021-01-17 23:00:00 0.4 0 Calma 9 Norte 0 -- -- 74
2021-01-17 22:00:00 1 3 Norte 9 Norte 0 -- -- 72
2021-01-17 21:00:00 1.5 0 Calma 3 Norte 0 -- -- 68
2021-01-17 20:00:00 2.8 2 Nordeste 5 Nordeste 0 -- -- 64
2021-01-17 19:00:00 4.3 0 Calma 6 Norte 0 -- -- 64
2021-01-17 18:00:00 6.5 3 Norte 6 Nordeste 0 -- -- 60
2021-01-17 17:00:00 7.8 3 Noroeste 8 Norte 0 -- -- 60
2021-01-17 16:00:00 8.3 4 Norte 8 Norte 0 -- -- 59
2021-01-17 15:00:00 8.1 3 Norte 7 Norte 0 -- -- 62
2021-01-17 14:00:00 6.7 3 Norte 8 Noroeste 0 -- -- 58
2021-01-17 13:00:00 5.2 2 Noroeste 5 Norte 0 -- -- 64
2021-01-17 12:00:00 4.5 2 Sudoeste 6 Sudoeste 0 -- -- 68
2021-01-17 11:00:00 2.4 0 Calma 3 Sur 0 -- -- 78
2021-01-17 10:00:00 -2 0 Calma 3 Norte 0 -- -- 95
2021-01-17 09:00:00 -3.9 0 Calma 2 Sudeste 0 -- -- 92
2021-01-17 08:00:00 -3.8 0 Calma 3 Oeste 0 -- -- 91
2021-01-17 07:00:00 -3.5 0 Calma 2 Oeste 0 -- -- 91
2021-01-17 06:00:00 -3 0 Calma 0 Calma 0 -- -- 90
2021-01-17 05:00:00 -2.7 0 Calma 2 Sudeste 0 -- -- 89
2021-01-17 04:00:00 -2.5 0 Calma 2 Sudoeste 0 -- -- 88
2021-01-17 03:00:00 -1.9 0 Calma 2 Sudoeste 0 -- -- 88
2021-01-17 02:00:00 -1.6 0 Calma 6 Nordeste 0 -- -- 87
2021-01-17 01:00:00 -1.6 0 Calma 9 Sudoeste 0 -- -- 85
2021-01-17 00:00:00 -0.5 0 Calma 3 Nordeste 0 -- -- 82
2021-01-16 23:00:00 0.1 0 Calma 3 Nordeste 0 -- -- 80
2021-01-16 22:00:00 0.6 0 Calma 4 Sudoeste 0 -- -- 78
2021-01-16 21:00:00 1.8 0 Calma 5 Norte 0 -- -- 73
2021-01-16 20:00:00 2.4 0 Calma 5 Nordeste 0 -- -- 72
2021-01-16 19:00:00 4.6 3 Norte 6 Norte 0 -- -- 63
2021-01-16 18:00:00 6.3 2 Norte 8 Norte 0 -- -- 51
2021-01-16 17:00:00 7.6 4 Noroeste 13 Norte 0 -- -- 48
2021-01-16 16:00:00 8.4 7 Norte 15 Norte 0 -- -- 44
2021-01-16 15:00:00 8 6 Noroeste 14 Noroeste 0 -- -- 47
2021-01-16 14:00:00 6.9 4 Noroeste 13 Oeste 0 -- -- 54
2021-01-16 13:00:00 5.2 4 Oeste 12 Sur 0 -- -- 66
2021-01-16 12:00:00 3.7 3 Oeste 9 Sudoeste 0 -- -- 71
2021-01-16 11:00:00 1.8 2 Sudoeste 9 Sur 0 -- -- 78
2021-01-16 10:00:00 -0.6 4 Sur 14 Norte 0 -- -- 85
2021-01-16 09:00:00 -2.8 6 Norte 13 Norte 0 -- -- 88
2021-01-16 08:00:00 -3.9 5 Norte 14 Norte 0 -- -- 89
2021-01-16 07:00:00 -2.7 7 Norte 12 Norte 0 -- -- 90
2021-01-16 06:00:00 -2.5 3 Norte 6 Norte 0 -- -- 92
2021-01-16 05:00:00 -2.5 0 Calma 2 Nordeste 0 -- -- 92
2021-01-16 04:00:00 -2.3 0 Calma 3 Norte 0 -- -- 91
2021-01-16 03:00:00 -2 0 Calma 5 Norte 0 -- -- 90
2021-01-16 02:00:00 -1.8 0 Calma 6 Noroeste 0 -- -- 89
2021-01-16 01:00:00 -1.3 0 Calma 4 Noroeste 0 -- -- 90
2021-01-16 00:00:00 -0.8 0 Calma 4 Nordeste 0 -- -- 89
2021-01-15 23:00:00 0 2 Norte 4 Norte 0 -- -- 87
2021-01-15 22:00:00 0.7 0 Calma 7 Norte 0 -- -- 84
2021-01-15 21:00:00 1 2 Norte 6 Noroeste 0 -- -- 86
2021-01-15 20:00:00 1.7 2 Norte 8 Norte 0 -- -- 84
2021-01-15 19:00:00 3 3 Noroeste 6 Noroeste 0 -- -- 79
2021-01-15 18:00:00 4.6 2 Noroeste 12 Noroeste 0 -- -- 73
2021-01-15 17:00:00 5.7 5 Noroeste 17 Noroeste 0 -- -- 68
2021-01-15 16:00:00 6.3 5 Noroeste 15 Norte 0 -- -- 67
2021-01-15 15:00:00 6.5 6 Norte 16 Noroeste 0 -- -- 66
2021-01-15 14:00:00 6.5 6 Noroeste 15 Norte 0 -- -- 67
2021-01-15 13:00:00 5.5 6 Norte 13 Noroeste 0 -- -- 70
2021-01-15 12:00:00 3.4 4 Noroeste 13 Norte 0 -- -- 77
2021-01-15 11:00:00 1 4 Noroeste 9 Noroeste 0 -- -- 80
2021-01-15 10:00:00 -1.9 0 Calma 5 Nordeste 0 -- -- 86
2021-01-15 09:00:00 -3.5 0 Calma 3 Norte 0 -- -- 87
2021-01-15 08:00:00 -3.5 0 Calma 2 Nordeste 0 -- -- 86
2021-01-15 07:00:00 -3 0 Calma 3 Nordeste 0 -- -- 84
2021-01-15 06:00:00 -2.7 0 Calma 4 Noroeste 0 -- -- 81
2021-01-15 05:00:00 -1.9 0 Calma 5 Norte 0 -- -- 80
2021-01-15 04:00:00 -1.5 2 Norte 7 Norte 0 -- -- 79
2021-01-15 03:00:00 -1.3 5 Norte 10 Norte 0 -- -- 77
2021-01-15 02:00:00 -1.4 4 Norte 9 Norte 0 -- -- 80
2021-01-15 01:00:00 -2.1 2 Nordeste 7 Nordeste 0 -- -- 82
2021-01-15 00:00:00 -1.6 4 Norte 9 Norte 0 -- -- 79
2021-01-14 23:00:00 -1.1 3 Norte 9 Norte 0 -- -- 78
2021-01-14 22:00:00 -0.3 3 Norte 8 Norte 0 -- -- 79
2021-01-14 21:00:00 0.4 2 Norte 11 Norte 0 -- -- 76
2021-01-14 20:00:00 1.1 5 Norte 10 Norte 0 -- -- 73
2021-01-14 19:00:00 1.7 0 Calma 8 Noroeste 0 -- -- 71
2021-01-14 18:00:00 3.9 2 Noroeste 14 Norte 0 -- -- 65
2021-01-14 17:00:00 5.5 8 Norte 15 Norte 0 -- -- 57
2021-01-14 16:00:00 6.3 6 Noroeste 14 Noroeste 0 -- -- 47
2021-01-14 15:00:00 5.9 5 Noroeste 14 Noroeste 0 -- -- 54
2021-01-14 14:00:00 5.5 5 Noroeste 12 Oeste 0 -- -- 56
2021-01-14 13:00:00 4.4 4 Noroeste 9 Noroeste 0 -- -- 60
2021-01-14 12:00:00 3 2 Oeste 7 Noroeste 0 -- -- 66
2021-01-14 11:00:00 0.6 0 Calma 3 Noroeste 0 -- -- 78
2021-01-14 10:00:00 -3 0 Calma 3 Norte 0 -- -- 85
2021-01-14 09:00:00 -4.3 0 Calma 4 Noroeste 0 -- -- 83
2021-01-14 08:00:00 -4.3 0 Calma 5 Norte 0 -- -- 87
2021-01-14 07:00:00 -3.9 0 Calma 5 Norte 0 -- -- 87
2021-01-14 06:00:00 -3.5 3 Nordeste 5 Nordeste 0 -- -- 86
2021-01-14 05:00:00 -3.7 2 Nordeste 4 Norte 0 -- -- 90
2021-01-14 04:00:00 -3.4 0 Calma 2 Norte 0 -- -- 90
2021-01-14 03:00:00 -2.9 0 Calma 3 Norte 0 -- -- 89
2021-01-14 02:00:00 -2.7 0 Calma 4 Noroeste 0 -- -- 89
2021-01-14 01:00:00 -2.2 0 Calma 3 Norte 0 -- -- 87
2021-01-14 00:00:00 -1.5 0 Calma 5 Nordeste 0 -- -- 85
2021-01-13 23:00:00 -1.1 2 Norte 4 Norte 0 -- -- 83
2021-01-13 22:00:00 -0.5 2 Norte 3 Norte 0 -- -- 81
2021-01-13 21:00:00 -0.2 0 Calma 3 Norte 0 -- -- 78
2021-01-13 20:00:00 0.5 2 Noroeste 4 Norte 0 -- -- 76
2021-01-13 19:00:00 1.8 0 Calma 6 Noroeste 0 -- -- 68
2021-01-13 18:00:00 3.2 2 Noroeste 9 Noroeste 0 -- -- 62
2021-01-13 17:00:00 4.3 3 Oeste 9 Noroeste 0 -- -- 60
2021-01-13 16:00:00 4.6 4 Norte 10 Norte 0 -- -- 60
2021-01-13 15:00:00 4.1 5 Norte 11 Norte 0 -- -- 64
2021-01-13 14:00:00 3.4 3 Noroeste 10 Noroeste 0 -- -- 64
2021-01-13 13:00:00 2.4 3 Norte 9 Norte 0 -- -- 67
2021-01-13 12:00:00 1.1 3 Noroeste 7 Noroeste 0 -- -- 69
2021-01-13 11:00:00 -1.3 0 Calma 4 Norte 0 -- -- 82
2021-01-13 10:00:00 -5.4 0 Calma 5 Noroeste 0 -- -- 89
2021-01-13 09:00:00 -6.3 2 Noroeste 6 Norte 0 -- -- 89
2021-01-13 08:00:00 -6.1 0 Calma 4 Norte 0 -- -- 90
2021-01-13 07:00:00 -5.9 0 Calma 2 Noroeste 0 -- -- 91
2021-01-13 06:00:00 -5.6 0 Calma 2 Norte 0 -- -- 91
2021-01-13 05:00:00 -5.7 0 Calma 4 Noroeste 0 -- -- 90
2021-01-13 04:00:00 -5.4 0 Calma 4 Noroeste 0 -- -- 90
2021-01-13 03:00:00 -4.4 0 Calma 2 Norte 0 -- -- 88
2021-01-13 02:00:00 -3.9 0 Calma 4 Noroeste 0 -- -- 87
2021-01-13 01:00:00 -3.5 0 Calma 2 Sudoeste 0 -- -- 86
2021-01-13 00:00:00 -2.8 0 Calma 3 Nordeste 0 -- -- 83
2021-01-12 23:00:00 -2.4 0 Calma 4 Norte 0 -- -- 80
2021-01-12 22:00:00 -1.7 0 Calma 4 Norte 0 -- -- 78
2021-01-12 21:00:00 -1.2 0 Calma 4 Nordeste 0 -- -- 79
2021-01-12 20:00:00 -0.5 2 Nordeste 6 Nordeste 0 -- -- 79
2021-01-12 19:00:00 0.6 2 Norte 8 Norte 0 -- -- 70
2021-01-12 18:00:00 2.2 3 Norte 9 Norte 0 -- -- 58
2021-01-12 17:00:00 3.1 3 Oeste 10 Noroeste 0 -- -- 55
2021-01-12 16:00:00 3.3 4 Noroeste 9 Norte 0 -- -- 57
2021-01-12 15:00:00 3.1 3 Noroeste 10 Oeste 0 -- -- 59
2021-01-12 14:00:00 2.2 4 Oeste 9 Oeste 0 -- -- 66
2021-01-12 13:00:00 1.1 3 Sudoeste 8 Sudoeste -- -- -- 74
2021-01-12 12:00:00 0.5 4 Sur 10 Sur -- -- -- 76
2021-01-12 11:00:00 -1.7 2 Sur 5 Sudoeste -- -- -- 81
2021-01-12 10:00:00 -5.1 0 Calma 4 Sur -- -- -- 91
2021-01-12 09:00:00 -6.6 0 Calma 3 Nordeste -- -- -- 91
2021-01-12 08:00:00 -6.6 0 Calma 4 Nordeste -- -- -- 90
2021-01-12 07:00:00 -6.6 0 Calma 4 Norte -- -- -- 90
2021-01-12 06:00:00 -6.2 3 Norte 7 Noroeste -- -- -- 89
2021-01-12 05:00:00 -6.1 3 Noroeste 8 Noroeste -- -- -- 90
2021-01-12 04:00:00 -5.6 0 Calma 3 Nordeste -- -- -- 88
2021-01-12 03:00:00 -5.4 0 Calma 6 Norte -- -- -- 86
2021-01-12 02:00:00 -5.2 3 Norte 6 Norte -- -- -- 85
2021-01-12 01:00:00 -4.7 3 Norte 6 Noroeste -- -- -- 84
2021-01-12 00:00:00 -4.1 3 Norte 7 Norte -- -- -- 82
2021-01-11 23:00:00 -3.9 0 Calma 6 Nordeste -- -- -- 83
2021-01-11 22:00:00 -3.5 3 Norte 9 Nordeste -- -- -- 80
2021-01-11 21:00:00 -2.8 3 Norte 9 Norte -- -- -- 80
2021-01-11 20:00:00 -1.9 2 Nordeste 10 Norte -- -- -- 79
2021-01-11 19:00:00 -1 3 Noroeste 8 Noroeste -- -- -- 76
2021-01-11 18:00:00 0.1 0 Calma 10 Noroeste -- -- -- 75
2021-01-11 17:00:00 1.4 4 Noroeste 18 Norte -- -- -- 71
2021-01-11 16:00:00 1.9 5 Norte 17 Norte -- -- -- 67
2021-01-11 15:00:00 1.5 5 Noroeste 15 Norte -- -- -- 70
2021-01-11 14:00:00 1.1 9 Noroeste 22 Norte -- -- -- 68
2021-01-11 13:00:00 0.5 7 Norte 15 Noroeste 0 -- -- 66
2021-01-11 12:00:00 -1.2 4 Norte 10 Noroeste 0 -- -- 77
2021-01-11 11:00:00 -2.6 5 Norte 11 Norte 0 -- -- 83
2021-01-11 10:00:00 -4.9 5 Norte 14 Norte 0 -- -- 89
2021-01-11 09:00:00 -5.7 3 Norte 12 Noroeste 0 -- -- 89
2021-01-11 08:00:00 -5.2 5 Norte 15 Norte 0 -- -- 91
2021-01-11 07:00:00 -5.3 3 Norte 8 Norte 0 -- -- 92
2021-01-11 06:00:00 -5.2 5 Norte 11 Noroeste 0 -- -- 93
2021-01-11 05:00:00 -4.9 4 Norte 12 Norte 0 -- -- 94
2021-01-11 04:00:00 -4.1 4 Norte 9 Norte 0 -- -- 95
2021-01-11 03:00:00 -3.5 3 Norte 7 Norte 0 -- -- 94
2021-01-11 02:00:00 -2.7 2 Noroeste 8 Norte 0 -- -- 94
2021-01-11 01:00:00 -2.4 2 Norte 8 Norte 0 -- -- 94
2021-01-11 00:00:00 -2.1 2 Nordeste 7 Norte 0 -- -- 94
2021-01-10 23:00:00 -1.3 3 Norte 10 Norte 0 -- -- 94
2021-01-10 22:00:00 -0.9 3 Norte 9 Norte 0 -- -- 94
2021-01-10 21:00:00 -0.4 4 Norte 13 Norte 0 -- -- 93
2021-01-10 20:00:00 -0.2 4 Norte 12 Norte 0 -- -- 93
2021-01-10 19:00:00 0.1 4 Norte 10 Noroeste 0 -- -- 92
2021-01-10 18:00:00 0.6 3 Norte 13 Norte 0 -- -- 89
2021-01-10 17:00:00 0.6 6 Norte 15 Norte 0 -- -- 88
2021-01-10 16:00:00 0.7 4 Norte 12 Norte 0.2 -- -- 88
2021-01-10 15:00:00 0.2 5 Nordeste 12 Nordeste 0 -- -- 89
2021-01-10 14:00:00 -1.2 8 Norte 14 Norte 0 -- -- 96
2021-01-10 13:00:00 -2.8 0 Calma 9 Norte 0 -- -- 98
2021-01-10 12:00:00 -3.6 0 Calma -- -- 0 -- -- 97
2021-01-10 11:00:00 -3.7 0 Calma -- -- 0 -- -- 97
2021-01-10 10:00:00 -3.3 0 Calma -- -- 0 -- -- 96
2021-01-10 09:00:00 -3.4 0 Calma -- -- 0 -- -- 96
2021-01-10 08:00:00 -3.6 0 Calma -- -- 0 -- -- 96
2021-01-10 07:00:00 -3.1 0 Calma -- -- 0 -- -- 95
2021-01-10 06:00:00 -2.9 0 Calma -- -- 0 -- -- 95
2021-01-10 05:00:00 -2.7 0 Calma -- -- 0 -- -- 94
2021-01-10 04:00:00 -1.4 0 Calma -- -- 0 -- -- 94
2021-01-10 03:00:00 -1.3 0 Calma -- -- 0 -- -- 94
2021-01-10 02:00:00 -0.9 0 Calma -- -- 0 -- -- 95
2021-01-10 01:00:00 -0.5 0 Calma 4 Este 0 -- -- 95
2021-01-10 00:00:00 -0.3 0 Calma 6 Este 0 -- -- 94
2021-01-09 23:00:00 0.1 3 Nordeste 6 Sudeste 0.2 -- -- 97
2021-01-09 22:00:00 0.5 2 Sudeste 6 Sudeste 0 -- -- 97
2021-01-09 21:00:00 1 0 Calma 6 Sur 0 -- -- 97
2021-01-09 20:00:00 1.4 3 Sur 5 Sur 0 -- -- 97
2021-01-09 19:00:00 1.7 2 Sudoeste 7 Sudoeste 0.2 -- -- 97
2021-01-09 18:00:00 2 3 Sudoeste 8 Sur 0 -- -- 96
2021-01-09 17:00:00 2.2 3 Sur 8 Sudeste 0.2 -- -- 96
2021-01-09 16:00:00 2.4 0 Calma 8 Oeste 0 -- -- 96
2021-01-09 15:00:00 2.5 3 Sudoeste 13 Oeste 0 -- -- 96
2021-01-09 14:00:00 2.1 4 Sudoeste 14 Oeste 0.2 -- -- 97
2021-01-09 13:00:00 2.5 7 Sudoeste 21 Sudoeste 0.8 -- -- 96
2021-01-09 12:00:00 3 8 Sur 19 Sur 1 -- -- 97
2021-01-09 11:00:00 2.1 7 Sudeste 22 Este 1.2 -- -- 98
2021-01-09 10:00:00 1.4 8 Sur 18 Sur 1.4 -- -- 98
2021-01-09 09:00:00 1.5 4 Sudeste 15 Sudeste 2 -- -- 98
2021-01-09 08:00:00 1.3 6 Sudeste 35 Sur 2.6 -- -- 98
2021-01-09 07:00:00 1.2 8 Sudeste 31 Sudeste 1 -- -- 97
2021-01-09 06:00:00 1.1 9 Sudeste 33 Sudeste 0.6 -- -- 97
2021-01-09 05:00:00 0.9 10 Sudeste 37 Este 1.2 -- -- 97
2021-01-09 04:00:00 1 12 Sudeste 34 Este 2 -- -- 97
2021-01-09 03:00:00 0.9 12 Sudeste 40 Sudeste 2.2 -- -- 97
2021-01-09 02:00:00 0.9 10 Sudeste 31 Este 1.4 -- -- 97
2021-01-09 01:00:00 1 10 Sudeste 36 Sur 1.4 -- -- 96
2021-01-09 00:00:00 1.2 10 Sudeste 39 Sudeste 1.8 -- -- 96
2021-01-08 23:00:00 1.1 8 Sudeste 36 Sudeste 1.2 -- -- 96
2021-01-08 22:00:00 1.1 10 Sudeste 35 Sudeste 1.2 -- -- 96
2021-01-08 21:00:00 0.9 10 Sudeste 35 Este 1 -- -- 97
2021-01-08 20:00:00 0.8 10 Este 33 Este 1 -- -- 98
2021-01-08 19:00:00 0.7 9 Sudeste 29 Nordeste 0.8 -- -- 99
2021-01-08 18:00:00 0.5 8 Sudeste 21 Este 0 -- -- 98
2021-01-08 17:00:00 0.5 5 Sudeste 31 Este 0.8 -- -- 98
2021-01-08 16:00:00 0.6 6 Sudeste 26 Sur 0.4 -- -- 98
2021-01-08 15:00:00 0.8 8 Sudeste 25 Este 0.8 -- -- 97
2021-01-08 14:00:00 1 6 Este 26 Este 1 -- -- 97
2021-01-08 13:00:00 1.4 8 Sudeste 27 Sudeste 1.6 -- -- 97
2021-01-08 12:00:00 1.1 6 Sudeste 20 Sudeste 1.8 -- -- 97
2021-01-08 11:00:00 0.9 6 Sudeste 21 Este 0.8 -- -- 97
2021-01-08 10:00:00 0.7 4 Sudeste 20 Este 0 -- -- 97
2021-01-08 09:00:00 0.5 6 Este 21 Este 0.2 -- -- 97
2021-01-08 08:00:00 0.6 5 Este 23 Este 0.2 -- -- 97
2021-01-08 07:00:00 0.7 4 Este 15 Este 0 -- -- 96
2021-01-08 06:00:00 0.8 6 Este 18 Este 0.2 -- -- 95
2021-01-08 05:00:00 0.9 5 Este 17 Este 0 -- -- 95
2021-01-08 04:00:00 1.2 5 Este 19 Este 0.2 -- -- 94
2021-01-08 03:00:00 1.4 5 Este 19 Este 0 -- -- 92
2021-01-08 02:00:00 1.6 5 Este 19 Este 0.2 -- -- 92
2021-01-08 01:00:00 1.4 5 Nordeste 14 Nordeste 0.2 -- -- 94
2021-01-08 00:00:00 1.3 4 Nordeste 10 Nordeste 0.2 -- -- 95
2021-01-07 23:00:00 1.4 3 Este 15 Este 0.2 -- -- 94
2021-01-07 22:00:00 1.5 5 Este 14 Este 0.2 -- -- 96
2021-01-07 21:00:00 1.1 4 Este 11 Este 0.2 -- -- 98
2021-01-07 20:00:00 0.8 4 Nordeste 14 Nordeste 0.2 -- -- 98
2021-01-07 19:00:00 0.5 5 Nordeste 14 Nordeste 0.4 -- -- 98
2021-01-07 18:00:00 0.6 4 Nordeste 13 Norte 0.4 -- -- 98
2021-01-07 17:00:00 0.6 4 Norte 12 Norte 0.6 -- -- 97
2021-01-07 16:00:00 1.1 6 Nordeste 19 Este 1.2 -- -- 97
2021-01-07 15:00:00 1 6 Este 15 Nordeste 1 -- -- 98
2021-01-07 14:00:00 0.6 4 Nordeste 13 Nordeste 0.8 -- -- 98
2021-01-07 13:00:00 0.6 5 Nordeste 15 Norte 0.6 -- -- 97
2021-01-07 12:00:00 1.2 5 Nordeste 18 Este 0.8 -- -- 96
2021-01-07 11:00:00 1.1 6 Este 16 Nordeste 0.8 -- -- 97
2021-01-07 10:00:00 0.8 4 Nordeste 13 Este 0.6 -- -- 96
2021-01-07 09:00:00 1.1 3 Este 18 Este 0.4 -- -- 96
2021-01-07 08:00:00 1 5 Este 18 Sudeste 0.4 -- -- 97
2021-01-07 07:00:00 0.9 6 Este 23 Nordeste 0.2 -- -- 97
2021-01-07 06:00:00 0.8 6 Sudeste 26 Este 0.2 -- -- 96
2021-01-07 05:00:00 0.8 4 Sudeste 21 Este 0.2 -- -- 96
2021-01-07 04:00:00 0.8 6 Sudeste 19 Este 0.2 -- -- 96
2021-01-07 03:00:00 0.8 6 Sudeste 22 Este 0.2 -- -- 95
2021-01-07 02:00:00 0.9 5 Sudeste 24 Este 0.2 -- -- 94
2021-01-07 01:00:00 1.3 6 Sudeste 28 Este 0.2 -- -- 92
2021-01-07 00:00:00 2.7 6 Sudeste 22 Este 0 -- -- 70
2021-01-06 23:00:00 3.6 7 Este 23 Este 0 -- -- 56
2021-01-06 22:00:00 3.3 6 Este 19 Sudeste 0 -- -- 57
2021-01-06 21:00:00 3.3 6 Este 20 Este 0 -- -- 56
2021-01-06 20:00:00 3.2 4 Este 14 Este 0 -- -- 67
2021-01-06 19:00:00 3.6 3 Este 12 Este 0 -- -- 72
2021-01-06 18:00:00 4.3 4 Este 12 Sudeste 0 -- -- 68
2021-01-06 17:00:00 4.9 3 Sudeste 13 Este 0 -- -- 66
2021-01-06 16:00:00 5.1 4 Este 15 Nordeste 0 -- -- 62
2021-01-06 15:00:00 4.9 5 Este 15 Nordeste 0 -- -- 58
2021-01-06 14:00:00 3.4 5 Este 16 Nordeste 0 -- -- 67
2021-01-06 13:00:00 2.1 3 Este 10 Nordeste 0 -- -- 73
2021-01-06 12:00:00 -0.1 2 Nordeste 6 Nordeste 0 -- -- 86
2021-01-06 11:00:00 -2.5 2 Norte 5 Norte 0 -- -- 89
2021-01-06 10:00:00 -4.8 3 Norte 5 Norte 0 -- -- 92
2021-01-06 09:00:00 -5.7 2 Norte 5 Norte 0 -- -- 93
2021-01-06 08:00:00 -5.9 0 Calma 3 Norte 0 -- -- 93
2021-01-06 07:00:00 -5.7 0 Calma 4 Norte 0 -- -- 94
2021-01-06 06:00:00 -5 0 Calma 4 Norte 0 -- -- 96
2021-01-06 05:00:00 -4.9 2 Nordeste 5 Norte 0 -- -- 97
2021-01-06 04:00:00 -4.4 0 Calma 3 Norte 0 -- -- 97
2021-01-06 03:00:00 -4.4 0 Calma 5 Noroeste 0 -- -- 96
2021-01-06 02:00:00 -3.8 0 Calma 3 Sudoeste 0 -- -- 94
2021-01-06 01:00:00 -3.3 0 Calma 2 Sur 0 -- -- 92
2021-01-06 00:00:00 -2.8 0 Calma 3 Sur 0 -- -- 92
2021-01-05 23:00:00 -2.1 0 Calma 2 Norte 0 -- -- 91
2021-01-05 22:00:00 -1.1 0 Calma 2 Nordeste 0 -- -- 91
2021-01-05 21:00:00 -0.2 0 Calma 5 Este 0 -- -- 89
2021-01-05 20:00:00 0.5 0 Calma 6 Este 0 -- -- 87
2021-01-05 19:00:00 1.4 2 Sudeste 6 Sudeste 0 -- -- 84
2021-01-05 18:00:00 2.6 0 Calma 10 Sudeste 0 -- -- 79
2021-01-05 17:00:00 3.5 3 Nordeste 7 Nordeste 0 -- -- 70
2021-01-05 16:00:00 3.3 2 Sudeste 7 Nordeste 0 -- -- 78
2021-01-05 15:00:00 2.4 2 Norte 8 Sudeste 0 -- -- 82
2021-01-05 14:00:00 1.6 2 Sur 5 Sur 0 -- -- 93
2021-01-05 13:00:00 0.5 0 Calma 8 Sudoeste 0 -- -- 99
2021-01-05 12:00:00 -0.3 4 Sudoeste 10 Sudoeste 0 -- -- 99
2021-01-05 11:00:00 -0.9 3 Sudoeste 9 Sudoeste 0 -- -- 99
2021-01-05 10:00:00 -1.3 3 Sudoeste 6 Sur 0 -- -- 99
2021-01-05 09:00:00 -1.8 3 Sudoeste 7 Sudoeste 0 -- -- 99
2021-01-05 08:00:00 -2.4 3 Sur 8 Sudoeste 0 -- -- 99
2021-01-05 07:00:00 -3.2 0 Calma 9 Sur 0 -- -- 99
2021-01-05 06:00:00 -3.9 4 Sur 9 Sudoeste 0 -- -- 98
2021-01-05 05:00:00 -3.8 0 Calma 4 Sudoeste 0 -- -- 98
2021-01-05 04:00:00 -3.5 0 Calma 6 Sur 0 -- -- 97
2021-01-05 03:00:00 -3 0 Calma 5 Sudoeste 0 -- -- 97
2021-01-05 02:00:00 -2.4 0 Calma 2 Sur 0 -- -- 97
2021-01-05 01:00:00 -1.7 0 Calma 5 Sudoeste 0 -- -- 96
2021-01-05 00:00:00 -0.9 0 Calma 6 Sur 0 -- -- 96
2021-01-04 23:00:00 -0.5 0 Calma 5 Oeste 0 -- -- 95
2021-01-04 22:00:00 0.1 3 Sudoeste 10 Sudoeste 0 -- -- 95
2021-01-04 21:00:00 0.6 3 Oeste 10 Oeste 0 -- -- 94
2021-01-04 20:00:00 1.4 2 Sudoeste 12 Sur 0 -- -- 92
2021-01-04 19:00:00 2.5 4 Sudoeste 15 Sudoeste 0 -- -- 88
2021-01-04 18:00:00 3.7 7 Sur 18 Sudoeste 0 -- -- 81
2021-01-04 17:00:00 4.8 6 Sudoeste 20 Oeste 0 -- -- 73
2021-01-04 16:00:00 5.5 6 Oeste 23 Oeste 0 -- -- 66
2021-01-04 15:00:00 4.7 7 Sudoeste 22 Sur 0 -- -- 78
2021-01-04 14:00:00 4.3 6 Sudoeste 21 Oeste 0 -- -- 81
2021-01-04 13:00:00 3.8 7 Sudoeste 21 Sur 0 -- -- 82
2021-01-04 12:00:00 2.8 5 Sudoeste 13 Sudoeste 0 -- -- 86
2021-01-04 11:00:00 2 5 Sudoeste 16 Sudoeste 0 -- -- 90
2021-01-04 10:00:00 -0.6 4 Sudoeste 13 Sur 0 -- -- 96
2021-01-04 09:00:00 -0.9 3 Sur 11 Sur 0 -- -- 94
2021-01-04 08:00:00 -0.8 5 Sudoeste 9 Sur 0 -- -- 94
2021-01-04 07:00:00 -1 3 Sur 8 Sudoeste 0 -- -- 94
2021-01-04 06:00:00 -1.1 4 Sudoeste 10 Oeste 0 -- -- 94
2021-01-04 05:00:00 -1.1 4 Sudoeste 11 Sudoeste 0 -- -- 94
2021-01-04 04:00:00 -1.3 3 Sudoeste 9 Sudoeste 0 -- -- 93
2021-01-04 03:00:00 -1.4 3 Sur 7 Sudoeste 0 -- -- 92
2021-01-04 02:00:00 -1.2 3 Sur 8 Sur 0 -- -- 91
2021-01-04 01:00:00 -0.7 4 Sudoeste 8 Sur 0 -- -- 88
2021-01-04 00:00:00 -0.1 3 Sudoeste 12 Sudoeste 0 -- -- 85
2021-01-03 23:00:00 0.9 4 Sudoeste 11 Oeste 0 -- -- 82
2021-01-03 22:00:00 0.8 0 Calma 8 Sur 0 -- -- 81
2021-01-03 21:00:00 0.6 2 Sur 6 Sudoeste 0 -- -- 78
2021-01-03 20:00:00 1.5 3 Sur 12 Sudoeste 0 -- -- 74
2021-01-03 19:00:00 2.7 4 Sur 12 Sudoeste 0 -- -- 71
2021-01-03 18:00:00 4.8 5 Sudoeste 18 Sudoeste 0 -- -- 59
2021-01-03 17:00:00 6.1 8 Sudoeste 22 Sudoeste 0 -- -- 55
2021-01-03 16:00:00 6.7 8 Sudoeste 23 Sudoeste 0 -- -- 52
2021-01-03 15:00:00 6.8 6 Sudoeste 21 Oeste 0 -- -- 50
2021-01-03 14:00:00 6.2 5 Oeste 14 Noroeste 0 -- -- 49
2021-01-03 13:00:00 5.6 5 Noroeste 18 Oeste 0 -- -- 53
2021-01-03 12:00:00 4.7 2 Oeste 12 Sudoeste 0 -- -- 59
2021-01-03 11:00:00 2 0 Calma 5 Sudoeste 0 -- -- 71
2021-01-03 10:00:00 -1.8 4 Sudoeste 8 Sudoeste 0 -- -- 82
2021-01-03 09:00:00 -3.7 0 Calma 2 Oeste 0 -- -- 85
2021-01-03 08:00:00 -3.5 2 Sur 4 Sur 0 -- -- 83
2021-01-03 07:00:00 -3.2 0 Calma 6 Oeste 0 -- -- 83
2021-01-03 06:00:00 -3 2 Sur 6 Noroeste 0 -- -- 82
2021-01-03 05:00:00 -3 0 Calma 5 Noroeste 0 -- -- 82
2021-01-03 04:00:00 -2.8 0 Calma 7 Noroeste 0 -- -- 81
2021-01-03 03:00:00 -2.6 0 Calma 6 Noroeste 0 -- -- 82
2021-01-03 02:00:00 -2.5 0 Calma 5 Oeste 0 -- -- 81
2021-01-03 01:00:00 -1.7 0 Calma 9 Norte 0 -- -- 78
2021-01-03 00:00:00 -1.6 3 Norte 9 Nordeste 0 -- -- 77
2021-01-02 23:00:00 -1.2 2 Noroeste 9 Norte 0 -- -- 77
2021-01-02 22:00:00 -0.5 2 Noroeste 10 Noroeste 0 -- -- 75
2021-01-02 21:00:00 0.3 3 Oeste 14 Noroeste 0 -- -- 74
2021-01-02 20:00:00 1.2 4 Noroeste 10 Noroeste 0 -- -- 71
2021-01-02 19:00:00 2.3 3 Noroeste 17 Noroeste 0 -- -- 63
2021-01-02 18:00:00 3.8 5 Noroeste 30 Nordeste 0 -- -- 57
2021-01-02 17:00:00 5 10 Noroeste 32 Noroeste 0 -- -- 54
2021-01-02 16:00:00 5.3 8 Noroeste 34 Norte 0 -- -- 53
2021-01-02 15:00:00 5.3 11 Noroeste 40 Norte 0 -- -- 53
2021-01-02 14:00:00 5.1 11 Noroeste 31 Noroeste 0 -- -- 56